PRIVATE WETTERSTATION BILLIGHEIM-ALLFELD                       ZURCK
Wetterdaten: Freitag, 29.04.2022
Datum Zeit Temp. A. Temp. A. min Temp. A. max Feuchte A. Luftdruck Regen Wind Richtung Richtung Sonnenschein ET Solar Taupunkt Windchill Windben Empfang
29.04.2022 00:00 7,9 C 7,9 C 8,3 C 82 % 1026,8 hPa 0,0 l/m 0,0 km/h (0 Bft) N 0 0 min 0,025 mm 0 W/m 5,0 C 7,9 C 0,0 km/h (0 Bft) 98 %
29.04.2022 00:10 7,7 C 7,7 C 7,9 C 82 % 1026,8 hPa 0,0 l/m 0,0 km/h (0 Bft) N 0 0 min 0,000 mm 0 W/m 4,8 C 7,7 C 0,0 km/h (0 Bft) 98 %
29.04.2022 00:20 7,4 C 7,4 C 7,7 C 83 % 1026,8 hPa 0,0 l/m 0,0 km/h (0 Bft) O-NO 67 0 min 0,000 mm 0 W/m 4,7 C 7,4 C 1,6 km/h (1 Bft) 97 %
29.04.2022 00:30 7,2 C 7,2 C 7,4 C 84 % 1027,0 hPa 0,0 l/m 0,0 km/h (0 Bft) N 0 0 min 0,000 mm 0 W/m 4,7 C 7,2 C 0,0 km/h (0 Bft) 98 %
29.04.2022 00:40 6,9 C 6,9 C 7,2 C 85 % 1026,8 hPa 0,0 l/m 0,0 km/h (0 Bft) NO 45 0 min 0,000 mm 0 W/m 4,6 C 6,9 C 1,6 km/h (1 Bft) 97 %
29.04.2022 00:50 6,8 C 6,8 C 6,9 C 86 % 1026,8 hPa 0,0 l/m 0,0 km/h (0 Bft) NO 45 0 min 0,000 mm 0 W/m 4,6 C 6,8 C 3,2 km/h (1 Bft) 98 %
29.04.2022 01:00 6,6 C 6,6 C 6,8 C 86 % 1026,9 hPa 0,0 l/m 0,0 km/h (0 Bft) N 0 0 min 0,000 mm 0 W/m 4,4 C 6,6 C 0,0 km/h (0 Bft) 96 %
29.04.2022 01:10 6,4 C 6,4 C 6,6 C 86 % 1026,9 hPa 0,0 l/m 0,0 km/h (0 Bft) N 0 0 min 0,000 mm 0 W/m 4,2 C 6,4 C 0,0 km/h (0 Bft) 98 %
29.04.2022 01:20 6,3 C 6,2 C 6,4 C 87 % 1026,8 hPa 0,0 l/m 0,0 km/h (0 Bft) N 0 0 min 0,000 mm 0 W/m 4,3 C 6,3 C 0,0 km/h (0 Bft) 98 %
29.04.2022 01:30 6,1 C 6,1 C 6,2 C 88 % 1026,6 hPa 0,0 l/m 0,0 km/h (0 Bft) N 0 0 min 0,000 mm 0 W/m 4,3 C 6,1 C 0,0 km/h (0 Bft) 97 %
29.04.2022 01:40 5,9 C 5,9 C 6,1 C 88 % 1026,6 hPa 0,0 l/m 0,0 km/h (0 Bft) N 0 0 min 0,000 mm 0 W/m 4,1 C 5,9 C 0,0 km/h (0 Bft) 98 %
29.04.2022 01:50 5,8 C 5,8 C 5,9 C 88 % 1026,6 hPa 0,0 l/m 0,0 km/h (0 Bft) N 0 0 min 0,000 mm 0 W/m 4,0 C 5,8 C 0,0 km/h (0 Bft) 96 %
29.04.2022 02:00 5,6 C 5,6 C 5,8 C 88 % 1026,6 hPa 0,0 l/m 0,0 km/h (0 Bft) N 0 0 min 0,000 mm 0 W/m 3,8 C 5,6 C 0,0 km/h (0 Bft) 98 %
29.04.2022 02:10 5,4 C 5,4 C 5,6 C 89 % 1026,5 hPa 0,0 l/m 0,0 km/h (0 Bft) N 0 0 min 0,000 mm 0 W/m 3,7 C 5,4 C 0,0 km/h (0 Bft) 97 %
29.04.2022 02:20 5,2 C 5,2 C 5,4 C 89 % 1026,4 hPa 0,0 l/m 0,0 km/h (0 Bft) N 0 0 min 0,000 mm 0 W/m 3,5 C 5,2 C 0,0 km/h (0 Bft) 97 %
29.04.2022 02:30 5,1 C 5,1 C 5,2 C 89 % 1026,2 hPa 0,0 l/m 0,0 km/h (0 Bft) N 0 0 min 0,000 mm 0 W/m 3,4 C 5,1 C 0,0 km/h (0 Bft) 98 %
29.04.2022 02:40 4,9 C 4,9 C 5,1 C 90 % 1026,2 hPa 0,0 l/m 0,0 km/h (0 Bft) N 0 0 min 0,000 mm 0 W/m 3,4 C 4,9 C 0,0 km/h (0 Bft) 97 %
29.04.2022 02:50 4,8 C 4,8 C 4,9 C 90 % 1026,2 hPa 0,0 l/m 0,0 km/h (0 Bft) N-NO 22 0 min 0,000 mm 0 W/m 3,3 C 4,8 C 3,2 km/h (1 Bft) 97 %
29.04.2022 03:00 4,7 C 4,7 C 4,8 C 90 % 1026,1 hPa 0,0 l/m 0,0 km/h (0 Bft) N 0 0 min 0,000 mm 0 W/m 3,2 C 4,7 C 0,0 km/h (0 Bft) 100 %
29.04.2022 03:10 4,6 C 4,6 C 4,7 C 90 % 1026,1 hPa 0,0 l/m 0,0 km/h (0 Bft) N 0 0 min 0,000 mm 0 W/m 3,1 C 4,6 C 0,0 km/h (0 Bft) 100 %
29.04.2022 03:20 4,5 C 4,5 C 4,6 C 90 % 1026,0 hPa 0,0 l/m 0,0 km/h (0 Bft) N 0 0 min 0,000 mm 0 W/m 3,0 C 4,5 C 0,0 km/h (0 Bft) 100 %
29.04.2022 03:30 4,4 C 4,4 C 4,5 C 90 % 1025,9 hPa 0,0 l/m 0,0 km/h (0 Bft) N-NO 22 0 min 0,000 mm 0 W/m 2,9 C 4,4 C 4,8 km/h (1 Bft) 100 %
29.04.2022 03:40 4,4 C 4,4 C 4,4 C 91 % 1025,9 hPa 0,0 l/m 0,0 km/h (0 Bft) N 360 0 min 0,000 mm 0 W/m 3,1 C 4,4 C 6,4 km/h (2 Bft) 100 %
29.04.2022 03:50 4,3 C 4,3 C 4,4 C 91 % 1026,0 hPa 0,0 l/m 0,0 km/h (0 Bft) N 0 0 min 0,000 mm 0 W/m 3,0 C 4,3 C 0,0 km/h (0 Bft) 100 %
29.04.2022 04:00 4,3 C 4,3 C 4,3 C 91 % 1025,8 hPa 0,0 l/m 0,0 km/h (0 Bft) N 0 0 min 0,000 mm 0 W/m 3,0 C 4,3 C 0,0 km/h (0 Bft) 100 %
29.04.2022 04:10 4,3 C 4,3 C 4,3 C 91 % 1025,8 hPa 0,0 l/m 0,0 km/h (0 Bft) N 0 0 min 0,000 mm 0 W/m 3,0 C 4,3 C 0,0 km/h (0 Bft) 100 %
29.04.2022 04:20 4,3 C 4,3 C 4,3 C 91 % 1025,8 hPa 0,0 l/m 0,0 km/h (0 Bft) N 0 0 min 0,000 mm 0 W/m 3,0 C 4,3 C 0,0 km/h (0 Bft) 100 %
29.04.2022 04:30 4,2 C 4,2 C 4,3 C 91 % 1025,7 hPa 0,0 l/m 0,0 km/h (0 Bft) N 0 0 min 0,000 mm 0 W/m 2,9 C 4,2 C 0,0 km/h (0 Bft) 100 %
29.04.2022 04:40 4,2 C 4,2 C 4,2 C 91 % 1025,7 hPa 0,0 l/m 0,0 km/h (0 Bft) N 0 0 min 0,000 mm 0 W/m 2,9 C 4,2 C 0,0 km/h (0 Bft) 100 %
29.04.2022 04:50 4,2 C 4,2 C 4,2 C 91 % 1025,8 hPa 0,0 l/m 0,0 km/h (0 Bft) N 0 0 min 0,000 mm 0 W/m 2,9 C 4,2 C 0,0 km/h (0 Bft) 89 %
29.04.2022 05:00 4,2 C 4,2 C 4,2 C 91 % 1025,7 hPa 0,0 l/m 0,0 km/h (0 Bft) N 0 0 min 0,000 mm 0 W/m 2,9 C 4,2 C 0,0 km/h (0 Bft) 100 %
29.04.2022 05:10 4,3 C 4,2 C 4,3 C 91 % 1025,7 hPa 0,0 l/m 0,0 km/h (0 Bft) N 0 0 min 0,000 mm 0 W/m 3,0 C 4,3 C 0,0 km/h (0 Bft) 100 %
29.04.2022 05:20 4,3 C 4,3 C 4,3 C 91 % 1025,6 hPa 0,0 l/m 0,0 km/h (0 Bft) N 0 0 min 0,000 mm 0 W/m 3,0 C 4,3 C 0,0 km/h (0 Bft) 100 %
29.04.2022 05:30 4,2 C 4,2 C 4,3 C 91 % 1025,5 hPa 0,0 l/m 0,0 km/h (0 Bft) N 0 0 min 0,000 mm 0 W/m 2,9 C 4,2 C 0,0 km/h (0 Bft) 100 %
29.04.2022 05:40 4,2 C 4,2 C 4,2 C 91 % 1025,6 hPa 0,0 l/m 1,6 km/h (1 Bft) N 360 0 min 0,000 mm 0 W/m 2,9 C 4,2 C 4,8 km/h (1 Bft) 100 %
29.04.2022 05:50 4,1 C 4,1 C 4,2 C 91 % 1025,4 hPa 0,0 l/m 0,0 km/h (0 Bft) N 0 0 min 0,000 mm 0 W/m 2,8 C 4,1 C 0,0 km/h (0 Bft) 100 %
29.04.2022 06:00 4,2 C 4,1 C 4,2 C 91 % 1025,4 hPa 0,0 l/m 0,0 km/h (0 Bft) N 0 0 min 0,000 mm 0 W/m 2,9 C 4,2 C 0,0 km/h (0 Bft) 99 %
29.04.2022 06:10 4,2 C 4,1 C 4,2 C 91 % 1025,5 hPa 0,0 l/m 0,0 km/h (0 Bft) N 0 0 min 0,000 mm 5 W/m 2,9 C 4,2 C 0,0 km/h (0 Bft) 100 %
29.04.2022 06:20 4,1 C 4,1 C 4,2 C 91 % 1025,5 hPa 0,0 l/m 0,0 km/h (0 Bft) N 0 0 min 0,000 mm 9 W/m 2,8 C 4,1 C 0,0 km/h (0 Bft) 100 %
29.04.2022 06:30 4,1 C 4,1 C 4,1 C 91 % 1025,5 hPa 0,0 l/m 0,0 km/h (0 Bft) N 0 0 min 0,000 mm 16 W/m 2,8 C 4,1 C 0,0 km/h (0 Bft) 93 %
29.04.2022 06:40 4,1 C 4,1 C 4,1 C 91 % 1025,7 hPa 0,0 l/m 0,0 km/h (0 Bft) N 0 0 min 0,000 mm 21 W/m 2,8 C 4,1 C 0,0 km/h (0 Bft) 97 %
29.04.2022 06:50 4,2 C 4,1 C 4,2 C 91 % 1025,7 hPa 0,0 l/m 0,0 km/h (0 Bft) N 360 0 min 0,000 mm 28 W/m 2,9 C 4,2 C 1,6 km/h (1 Bft) 98 %
29.04.2022 07:00 4,4 C 4,2 C 4,4 C 91 % 1025,7 hPa 0,0 l/m 0,0 km/h (0 Bft) N 0 0 min 0,000 mm 35 W/m 3,1 C 4,4 C 0,0 km/h (0 Bft) 100 %
29.04.2022 07:10 4,4 C 4,4 C 4,4 C 91 % 1025,7 hPa 0,0 l/m 0,0 km/h (0 Bft) N 0 0 min 0,000 mm 42 W/m 3,1 C 4,4 C 0,0 km/h (0 Bft) 100 %
29.04.2022 07:20 4,6 C 4,4 C 4,6 C 91 % 1025,7 hPa 0,0 l/m 0,0 km/h (0 Bft) N 0 0 min 0,000 mm 47 W/m 3,3 C 4,6 C 0,0 km/h (0 Bft) 100 %
29.04.2022 07:30 4,8 C 4,6 C 4,8 C 91 % 1025,8 hPa 0,0 l/m 1,6 km/h (1 Bft) N 360 0 min 0,000 mm 60 W/m 3,5 C 4,8 C 4,8 km/h (1 Bft) 100 %
29.04.2022 07:40 5,0 C 4,8 C 5,0 C 91 % 1025,9 hPa 0,0 l/m 0,0 km/h (0 Bft) N 0 0 min 0,000 mm 90 W/m 3,7 C 5,0 C 0,0 km/h (0 Bft) 100 %
29.04.2022 07:50 5,3 C 5,0 C 5,3 C 91 % 1025,9 hPa 0,0 l/m 0,0 km/h (0 Bft) N 0 0 min 0,000 mm 121 W/m 4,0 C 5,3 C 0,0 km/h (0 Bft) 100 %
29.04.2022 08:00 6,0 C 5,3 C 6,0 C 91 % 1026,0 hPa 0,0 l/m 0,0 km/h (0 Bft) N 0 0 min 0,025 mm 125 W/m 4,6 C 6,0 C 0,0 km/h (0 Bft) 100 %
29.04.2022 08:10 6,6 C 6,0 C 6,6 C 91 % 1026,0 hPa 0,0 l/m 0,0 km/h (0 Bft) N 0 0 min 0,000 mm 128 W/m 5,2 C 6,6 C 0,0 km/h (0 Bft) 100 %
29.04.2022 08:20 7,4 C 6,6 C 7,4 C 91 % 1026,0 hPa 0,0 l/m 0,0 km/h (0 Bft) N 0 10 min 0,000 mm 183 W/m 6,0 C 7,4 C 0,0 km/h (0 Bft) 100 %
29.04.2022 08:30 8,2 C 7,4 C 8,2 C 90 % 1025,9 hPa 0,0 l/m 0,0 km/h (0 Bft) N 0 10 min 0,000 mm 346 W/m 6,7 C 8,2 C 0,0 km/h (0 Bft) 100 %
29.04.2022 08:40 9,3 C 8,3 C 9,3 C 89 % 1026,0 hPa 0,0 l/m 0,0 km/h (0 Bft) N 0 10 min 0,000 mm 424 W/m 7,6 C 9,3 C 0,0 km/h (0 Bft) 100 %
29.04.2022 08:50 10,3 C 9,3 C 10,3 C 85 % 1026,0 hPa 0,0 l/m 0,0 km/h (0 Bft) N 0 10 min 0,000 mm 508 W/m 7,9 C 10,3 C 0,0 km/h (0 Bft) 90 %
29.04.2022 09:00 11,5 C 10,3 C 11,5 C 82 % 1025,9 hPa 0,0 l/m 0,0 km/h (0 Bft) N 0 10 min 0,127 mm 519 W/m 8,5 C 11,5 C 0,0 km/h (0 Bft) 100 %
29.04.2022 09:10 12,4 C 11,5 C 12,4 C 76 % 1025,8 hPa 0,0 l/m 0,0 km/h (0 Bft) N 0 10 min 0,000 mm 584 W/m 8,3 C 12,4 C 0,0 km/h (0 Bft) 100 %
29.04.2022 09:20 13,1 C 12,4 C 13,1 C 75 % 1025,8 hPa 0,0 l/m 0,0 km/h (0 Bft) N 0 10 min 0,000 mm 533 W/m 8,8 C 13,1 C 0,0 km/h (0 Bft) 100 %
29.04.2022 09:30 13,4 C 13,1 C 13,4 C 71 % 1025,7 hPa 0,0 l/m 0,0 km/h (0 Bft) N 0 10 min 0,000 mm 367 W/m 8,3 C 13,4 C 0,0 km/h (0 Bft) 100 %
29.04.2022 09:40 13,6 C 13,4 C 13,6 C 70 % 1025,7 hPa 0,0 l/m 0,0 km/h (0 Bft) N 0 10 min 0,000 mm 350 W/m 8,2 C 13,6 C 0,0 km/h (0 Bft) 100 %
29.04.2022 09:50 13,8 C 13,6 C 13,8 C 71 % 1025,8 hPa 0,0 l/m 0,0 km/h (0 Bft) N 0 10 min 0,000 mm 332 W/m 8,6 C 13,8 C 0,0 km/h (0 Bft) 100 %
29.04.2022 10:00 13,8 C 13,8 C 13,9 C 69 % 1025,7 hPa 0,0 l/m 0,0 km/h (0 Bft) N 0 10 min 0,203 mm 522 W/m 8,2 C 13,8 C 0,0 km/h (0 Bft) 100 %
29.04.2022 10:10 13,8 C 13,8 C 13,8 C 69 % 1025,7 hPa 0,0 l/m 0,0 km/h (0 Bft) N 0 10 min 0,000 mm 281 W/m 8,2 C 13,8 C 0,0 km/h (0 Bft) 100 %
29.04.2022 10:20 13,8 C 13,7 C 13,8 C 72 % 1025,8 hPa 0,0 l/m 0,0 km/h (0 Bft) N 0 10 min 0,000 mm 478 W/m 8,8 C 13,8 C 0,0 km/h (0 Bft) 100 %
29.04.2022 10:30 14,1 C 13,8 C 14,1 C 70 % 1025,8 hPa 0,0 l/m 0,0 km/h (0 Bft) N 360 10 min 0,000 mm 540 W/m 8,7 C 14,1 C 1,6 km/h (1 Bft) 100 %
29.04.2022 10:40 14,4 C 14,1 C 14,4 C 69 % 1025,7 hPa 0,0 l/m 0,0 km/h (0 Bft) N 0 10 min 0,000 mm 659 W/m 8,8 C 14,4 C 0,0 km/h (0 Bft) 100 %
29.04.2022 10:50 14,8 C 14,4 C 14,8 C 66 % 1025,7 hPa 0,0 l/m 0,0 km/h (0 Bft) N 360 10 min 0,000 mm 689 W/m 8,5 C 14,8 C 1,6 km/h (1 Bft) 100 %
29.04.2022 11:00 15,2 C 14,8 C 15,2 C 66 % 1025,7 hPa 0,0 l/m 0,0 km/h (0 Bft) N 0 10 min 0,254 mm 758 W/m 8,9 C 15,2 C 0,0 km/h (0 Bft) 100 %
29.04.2022 11:10 15,4 C 15,3 C 15,4 C 61 % 1025,6 hPa 0,0 l/m 0,0 km/h (0 Bft) N 360 10 min 0,000 mm 589 W/m 7,9 C 15,4 C 1,6 km/h (1 Bft) 100 %
29.04.2022 11:20 15,7 C 15,4 C 15,7 C 64 % 1025,4 hPa 0,0 l/m 0,0 km/h (0 Bft) N 360 10 min 0,000 mm 476 W/m 8,9 C 15,7 C 1,6 km/h (1 Bft) 100 %
29.04.2022 11:30 15,9 C 15,7 C 15,9 C 61 % 1025,3 hPa 0,0 l/m 0,0 km/h (0 Bft) N 0 10 min 0,000 mm 621 W/m 8,4 C 15,9 C 0,0 km/h (0 Bft) 100 %
29.04.2022 11:40 16,4 C 15,9 C 16,4 C 58 % 1025,2 hPa 0,0 l/m 0,0 km/h (0 Bft) N 360 10 min 0,000 mm 605 W/m 8,1 C 16,4 C 1,6 km/h (1 Bft) 100 %
29.04.2022 11:50 16,5 C 16,4 C 16,5 C 60 % 1025,1 hPa 0,0 l/m 0,0 km/h (0 Bft) N 360 10 min 0,000 mm 371 W/m 8,7 C 16,5 C 1,6 km/h (1 Bft) 100 %
29.04.2022 12:00 16,4 C 16,4 C 16,5 C 56 % 1025,0 hPa 0,0 l/m 0,0 km/h (0 Bft) N 0 10 min 0,254 mm 756 W/m 7,6 C 16,4 C 0,0 km/h (0 Bft) 100 %
29.04.2022 12:10 17,3 C 16,5 C 17,3 C 55 % 1024,9 hPa 0,0 l/m 0,0 km/h (0 Bft) N 360 10 min 0,000 mm 886 W/m 8,2 C 17,3 C 1,6 km/h (1 Bft) 100 %
29.04.2022 12:30 18,0 C 16,5 C 18,0 C 54 % 1024,8 hPa 0,0 l/m 1,1 km/h (1 Bft) O 101 20 min 0,000 mm 946 W/m 8,6 C 18,0 C 11,3 km/h (2 Bft) 100 %
29.04.2022 12:40 18,3 C 18,0 C 18,3 C 54 % 1024,7 hPa 0,0 l/m 0,2 km/h (0 Bft) O 81 10 min 0,000 mm 974 W/m 8,8 C 18,3 C 6,4 km/h (2 Bft) 100 %
29.04.2022 12:50 18,3 C 18,3 C 18,3 C 48 % 1024,7 hPa 0,0 l/m 1,2 km/h (1 Bft) SO 145 10 min 0,000 mm 656 W/m 7,1 C 18,3 C 17,7 km/h (3 Bft) 100 %
29.04.2022 13:01 18,3 C 18,1 C 18,3 C 50 % 1024,5 hPa 0,0 l/m 1,2 km/h (1 Bft) N-NO 24 11 min 0,433 mm 733 W/m 7,7 C 18,3 C 9,7 km/h (2 Bft) 100 %
29.04.2022 13:10 18,6 C 18,3 C 18,6 C 47 % 1024,4 hPa 0,0 l/m 0,0 km/h (0 Bft) NO 35 9 min 0,000 mm 592 W/m 7,1 C 18,6 C 3,2 km/h (1 Bft) 100 %
29.04.2022 13:20 18,6 C 18,6 C 18,8 C 49 % 1024,3 hPa 0,0 l/m 0,0 km/h (0 Bft) N-NO 26 10 min 0,000 mm 555 W/m 7,7 C 18,6 C 1,6 km/h (1 Bft) 100 %
29.04.2022 13:30 18,4 C 18,4 C 18,6 C 48 % 1024,4 hPa 0,0 l/m 0,8 km/h (0 Bft) NO 41 10 min 0,000 mm 469 W/m 7,2 C 18,4 C 9,7 km/h (2 Bft) 100 %
29.04.2022 13:40 18,3 C 18,3 C 18,5 C 52 % 1024,2 hPa 0,0 l/m 0,1 km/h (0 Bft) N 350 10 min 0,000 mm 454 W/m 8,3 C 18,3 C 3,2 km/h (1 Bft) 100 %
29.04.2022 13:50 18,2 C 18,1 C 18,3 C 52 % 1024,2 hPa 0,0 l/m 0,2 km/h (0 Bft) N-NO 29 10 min 0,000 mm 446 W/m 8,2 C 18,2 C 6,4 km/h (2 Bft) 100 %
29.04.2022 14:00 18,2 C 18,1 C 18,2 C 53 % 1023,9 hPa 0,0 l/m 0,0 km/h (0 Bft) N-NO 23 10 min 0,305 mm 555 W/m 8,5 C 18,2 C 0,0 km/h (0 Bft) 99 %
29.04.2022 14:10 18,3 C 18,2 C 18,3 C 55 % 1023,8 hPa 0,0 l/m 0,1 km/h (0 Bft) NO 49 10 min 0,000 mm 775 W/m 9,1 C 18,3 C 4,8 km/h (1 Bft) 100 %
29.04.2022 14:20 18,5 C 18,3 C 18,5 C 51 % 1023,8 hPa 0,0 l/m 0,0 km/h (0 Bft) N 351 10 min 0,000 mm 693 W/m 8,2 C 18,5 C 1,6 km/h (1 Bft) 100 %
29.04.2022 14:30 18,7 C 18,5 C 18,8 C 52 % 1023,6 hPa 0,0 l/m 0,1 km/h (0 Bft) N 355 10 min 0,000 mm 392 W/m 8,6 C 18,7 C 4,8 km/h (1 Bft) 100 %
29.04.2022 14:40 18,6 C 18,6 C 18,7 C 53 % 1023,5 hPa 0,0 l/m 0,0 km/h (0 Bft) NO 49 10 min 0,000 mm 497 W/m 8,8 C 18,6 C 4,8 km/h (1 Bft) 100 %
29.04.2022 14:50 18,9 C 18,5 C 18,9 C 55 % 1023,5 hPa 0,0 l/m 0,1 km/h (0 Bft) O 96 10 min 0,000 mm 919 W/m 9,7 C 18,9 C 4,8 km/h (1 Bft) 100 %
29.04.2022 15:00 19,7 C 18,9 C 19,7 C 51 % 1023,4 hPa 0,0 l/m 0,1 km/h (0 Bft) N-NW 344 10 min 0,381 mm 853 W/m 9,3 C 19,7 C 4,8 km/h (1 Bft) 100 %
29.04.2022 15:10 19,8 C 19,7 C 20,1 C 46 % 1023,3 hPa 0,0 l/m 1,7 km/h (1 Bft) O 97 10 min 0,000 mm 619 W/m 7,8 C 19,8 C 19,3 km/h (3 Bft) 100 %
29.04.2022 15:20 19,4 C 19,4 C 19,8 C 45 % 1023,1 hPa 0,0 l/m 0,5 km/h (0 Bft) O 80 10 min 0,000 mm 557 W/m 7,2 C 19,4 C 11,3 km/h (2 Bft) 100 %
29.04.2022 15:30 19,5 C 19,4 C 19,5 C 51 % 1023,0 hPa 0,0 l/m 0,0 km/h (0 Bft) NO 53 10 min 0,000 mm 564 W/m 9,1 C 19,5 C 1,6 km/h (1 Bft) 100 %
29.04.2022 15:40 19,3 C 19,3 C 19,5 C 44 % 1022,8 hPa 0,0 l/m 0,1 km/h (0 Bft) S-SO 149 10 min 0,000 mm 387 W/m 6,7 C 19,3 C 6,4 km/h (2 Bft) 99 %
29.04.2022 15:50 18,9 C 18,9 C 19,3 C 45 % 1022,8 hPa 0,0 l/m 1,6 km/h (1 Bft) O-SO 110 10 min 0,000 mm 313 W/m 6,7 C 18,9 C 11,3 km/h (2 Bft) 100 %
29.04.2022 16:00 18,8 C 18,8 C 18,9 C 49 % 1022,7 hPa 0,0 l/m 0,0 km/h (0 Bft) O-SO 109 10 min 0,304 mm 589 W/m 7,9 C 18,8 C 0,0 km/h (0 Bft) 100 %
29.04.2022 16:10 18,9 C 18,8 C 18,9 C 46 % 1022,5 hPa 0,0 l/m 0,0 km/h (0 Bft) N 5 10 min 0,000 mm 299 W/m 7,0 C 18,9 C 1,6 km/h (1 Bft) 100 %
29.04.2022 16:20 18,7 C 18,7 C 18,9 C 50 % 1022,5 hPa 0,0 l/m 0,0 km/h (0 Bft) N-NO 20 10 min 0,000 mm 475 W/m 8,1 C 18,7 C 1,6 km/h (1 Bft) 100 %
29.04.2022 16:30 19,1 C 18,7 C 19,1 C 48 % 1022,4 hPa 0,0 l/m 0,2 km/h (0 Bft) SO 143 10 min 0,000 mm 475 W/m 7,8 C 19,1 C 6,4 km/h (2 Bft) 100 %
29.04.2022 16:40 19,3 C 19,0 C 19,3 C 44 % 1022,3 hPa 0,0 l/m 0,3 km/h (0 Bft) O-SO 116 10 min 0,000 mm 441 W/m 6,7 C 19,3 C 9,7 km/h (2 Bft) 100 %
29.04.2022 16:50 19,3 C 19,3 C 19,3 C 47 % 1022,2 hPa 0,0 l/m 0,2 km/h (0 Bft) O 82 10 min 0,000 mm 315 W/m 7,7 C 19,3 C 8,0 km/h (2 Bft) 100 %
29.04.2022 17:00 19,4 C 19,3 C 19,4 C 48 % 1022,2 hPa 0,0 l/m 0,0 km/h (0 Bft) NO 34 10 min 0,229 mm 403 W/m 8,1 C 19,4 C 0,0 km/h (0 Bft) 100 %
29.04.2022 17:10 19,1 C 19,1 C 19,4 C 46 % 1022,0 hPa 0,0 l/m 0,0 km/h (0 Bft) SO 125 10 min 0,000 mm 200 W/m 7,2 C 19,1 C 1,6 km/h (1 Bft) 100 %
29.04.2022 17:20 18,7 C 18,7 C 19,1 C 52 % 1022,1 hPa 0,0 l/m 0,0 km/h (0 Bft) O-SO 123 10 min 0,000 mm 169 W/m 8,6 C 18,7 C 0,0 km/h (0 Bft) 100 %
29.04.2022 17:30 18,4 C 18,4 C 18,7 C 52 % 1022,1 hPa 0,0 l/m 0,0 km/h (0 Bft) O-SO 123 10 min 0,000 mm 195 W/m 8,4 C 18,4 C 0,0 km/h (0 Bft) 100 %
29.04.2022 17:40 18,3 C 18,3 C 18,4 C 51 % 1022,2 hPa 0,0 l/m 0,7 km/h (0 Bft) NW 323 10 min 0,000 mm 169 W/m 8,0 C 18,3 C 8,0 km/h (2 Bft) 100 %
29.04.2022 17:50 18,3 C 18,3 C 18,3 C 54 % 1021,9 hPa 0,0 l/m 0,9 km/h (0 Bft) NW 323 0 min 0,000 mm 148 W/m 8,8 C 18,3 C 9,7 km/h (2 Bft) 100 %
29.04.2022 18:00 18,1 C 18,1 C 18,3 C 53 % 1021,9 hPa 0,0 l/m 0,0 km/h (0 Bft) NW 323 10 min 0,127 mm 207 W/m 8,4 C 18,1 C 0,0 km/h (0 Bft) 100 %
29.04.2022 18:10 18,1 C 18,1 C 18,1 C 53 % 1021,8 hPa 0,0 l/m 0,0 km/h (0 Bft) NW 323 10 min 0,000 mm 218 W/m 8,4 C 18,1 C 0,0 km/h (0 Bft) 100 %
29.04.2022 18:20 18,1 C 18,1 C 18,1 C 56 % 1021,8 hPa 0,0 l/m 0,0 km/h (0 Bft) NW 323 10 min 0,000 mm 188 W/m 9,2 C 18,1 C 0,0 km/h (0 Bft) 100 %
29.04.2022 18:30 18,0 C 18,0 C 18,1 C 55 % 1021,6 hPa 0,0 l/m 0,0 km/h (0 Bft) NW 323 0 min 0,000 mm 134 W/m 8,8 C 18,0 C 0,0 km/h (0 Bft) 100 %
29.04.2022 18:40 17,7 C 17,7 C 18,0 C 57 % 1021,7 hPa 0,0 l/m 0,0 km/h (0 Bft) N-NW 347 0 min 0,000 mm 90 W/m 9,1 C 17,7 C 0,0 km/h (0 Bft) 100 %
29.04.2022 18:50 17,4 C 17,4 C 17,7 C 57 % 1021,5 hPa 0,0 l/m 0,0 km/h (0 Bft) N-NW 347 0 min 0,000 mm 111 W/m 8,8 C 17,4 C 0,0 km/h (0 Bft) 100 %
29.04.2022 19:00 17,2 C 17,2 C 17,4 C 57 % 1021,5 hPa 0,0 l/m 0,0 km/h (0 Bft) N-NW 347 0 min 0,102 mm 98 W/m 8,6 C 17,2 C 0,0 km/h (0 Bft) 100 %
29.04.2022 19:10 17,1 C 17,1 C 17,2 C 58 % 1021,5 hPa 0,0 l/m 0,0 km/h (0 Bft) N-NW 347 0 min 0,000 mm 90 W/m 8,8 C 17,1 C 0,0 km/h (0 Bft) 100 %
29.04.2022 19:20 16,8 C 16,8 C 17,1 C 60 % 1021,5 hPa 0,0 l/m 0,0 km/h (0 Bft) N-NW 347 0 min 0,000 mm 86 W/m 9,0 C 16,8 C 0,0 km/h (0 Bft) 100 %
29.04.2022 19:30 16,6 C 16,6 C 16,8 C 60 % 1021,5 hPa 0,0 l/m 0,0 km/h (0 Bft) N-NW 347 0 min 0,000 mm 70 W/m 8,8 C 16,6 C 0,0 km/h (0 Bft) 100 %
29.04.2022 19:40 16,3 C 16,3 C 16,6 C 62 % 1021,5 hPa 0,0 l/m 0,0 km/h (0 Bft) N-NW 347 0 min 0,000 mm 51 W/m 9,0 C 16,3 C 0,0 km/h (0 Bft) 100 %
29.04.2022 19:50 16,0 C 16,0 C 16,3 C 63 % 1021,5 hPa 0,0 l/m 0,0 km/h (0 Bft) N-NW 347 0 min 0,000 mm 30 W/m 9,0 C 16,0 C 0,0 km/h (0 Bft) 100 %
29.04.2022 20:00 15,7 C 15,7 C 16,0 C 64 % 1021,5 hPa 0,0 l/m 0,0 km/h (0 Bft) N-NW 347 0 min 0,050 mm 23 W/m 8,9 C 15,7 C 0,0 km/h (0 Bft) 100 %
29.04.2022 20:10 15,3 C 15,3 C 15,7 C 66 % 1021,4 hPa 0,0 l/m 0,0 km/h (0 Bft) N-NW 347 0 min 0,000 mm 19 W/m 9,0 C 15,3 C 0,0 km/h (0 Bft) 100 %
29.04.2022 20:20 15,1 C 15,1 C 15,3 C 67 % 1021,4 hPa 0,0 l/m 0,0 km/h (0 Bft) N-NW 347 0 min 0,000 mm 11 W/m 9,0 C 15,1 C 0,0 km/h (0 Bft) 100 %
29.04.2022 20:30 14,6 C 14,6 C 15,1 C 68 % 1021,5 hPa 0,0 l/m 0,0 km/h (0 Bft) N-NW 347 0 min 0,000 mm 0 W/m 8,8 C 14,6 C 0,0 km/h (0 Bft) 100 %
29.04.2022 20:40 14,3 C 14,3 C 14,6 C 70 % 1021,4 hPa 0,0 l/m 0,0 km/h (0 Bft) N-NW 347 0 min 0,000 mm 0 W/m 8,9 C 14,3 C 0,0 km/h (0 Bft) 100 %
29.04.2022 20:50 14,0 C 14,0 C 14,3 C 69 % 1021,5 hPa 0,0 l/m 0,0 km/h (0 Bft) N-NW 347 0 min 0,000 mm 0 W/m 8,4 C 14,0 C 0,0 km/h (0 Bft) 99 %
29.04.2022 21:00 13,7 C 13,7 C 14,0 C 70 % 1021,5 hPa 0,0 l/m 0,0 km/h (0 Bft) N-NW 347 0 min 0,000 mm 0 W/m 8,3 C 13,7 C 0,0 km/h (0 Bft) 100 %
29.04.2022 21:10 13,4 C 13,4 C 13,7 C 71 % 1021,6 hPa 0,0 l/m 0,0 km/h (0 Bft) N 0 0 min 0,000 mm 0 W/m 8,3 C 13,4 C 0,0 km/h (0 Bft) 100 %
29.04.2022 21:20 13,2 C 13,2 C 13,4 C 71 % 1021,7 hPa 0,0 l/m 0,0 km/h (0 Bft) N 0 0 min 0,000 mm 0 W/m 8,1 C 13,2 C 0,0 km/h (0 Bft) 100 %
29.04.2022 21:30 12,9 C 12,9 C 13,2 C 71 % 1021,7 hPa 0,0 l/m 0,0 km/h (0 Bft) N 0 0 min 0,000 mm 0 W/m 7,8 C 12,9 C 0,0 km/h (0 Bft) 100 %
29.04.2022 21:40 12,6 C 12,6 C 12,9 C 72 % 1021,7 hPa 0,0 l/m 0,0 km/h (0 Bft) N 0 0 min 0,000 mm 0 W/m 7,7 C 12,6 C 0,0 km/h (0 Bft) 100 %
29.04.2022 21:50 12,4 C 12,4 C 12,6 C 72 % 1021,7 hPa 0,0 l/m 0,0 km/h (0 Bft) N 0 0 min 0,000 mm 0 W/m 7,5 C 12,4 C 0,0 km/h (0 Bft) 100 %
29.04.2022 22:00 12,2 C 12,2 C 12,4 C 71 % 1021,6 hPa 0,0 l/m 0,0 km/h (0 Bft) N 0 0 min 0,025 mm 0 W/m 7,1 C 12,2 C 0,0 km/h (0 Bft) 100 %
29.04.2022 22:10 12,1 C 12,1 C 12,2 C 74 % 1021,6 hPa 0,0 l/m 0,0 km/h (0 Bft) N 0 0 min 0,000 mm 0 W/m 7,6 C 12,1 C 0,0 km/h (0 Bft) 100 %
29.04.2022 22:20 12,0 C 12,0 C 12,1 C 74 % 1021,6 hPa 0,0 l/m 0,0 km/h (0 Bft) N 0 0 min 0,000 mm 0 W/m 7,5 C 12,0 C 0,0 km/h (0 Bft) 100 %
29.04.2022 22:30 11,8 C 11,8 C 12,0 C 75 % 1021,6 hPa 0,0 l/m 0,0 km/h (0 Bft) N 0 0 min 0,000 mm 0 W/m 7,5 C 11,8 C 0,0 km/h (0 Bft) 100 %
29.04.2022 22:40 11,6 C 11,6 C 11,8 C 76 % 1021,5 hPa 0,0 l/m 0,0 km/h (0 Bft) N 0 0 min 0,000 mm 0 W/m 7,5 C 11,6 C 0,0 km/h (0 Bft) 100 %
29.04.2022 22:50 11,3 C 11,3 C 11,6 C 74 % 1021,6 hPa 0,0 l/m 0,0 km/h (0 Bft) N 0 0 min 0,000 mm 0 W/m 6,8 C 11,3 C 0,0 km/h (0 Bft) 99 %
29.04.2022 23:00 11,2 C 11,2 C 11,3 C 76 % 1021,5 hPa 0,0 l/m 0,0 km/h (0 Bft) N 0 0 min 0,025 mm 0 W/m 7,1 C 11,2 C 0,0 km/h (0 Bft) 100 %
29.04.2022 23:10 11,0 C 11,0 C 11,2 C 75 % 1021,4 hPa 0,0 l/m 0,0 km/h (0 Bft) N 0 0 min 0,000 mm 0 W/m 6,7 C 11,0 C 0,0 km/h (0 Bft) 100 %
29.04.2022 23:20 11,1 C 11,0 C 11,1 C 78 % 1021,3 hPa 0,0 l/m 0,0 km/h (0 Bft) N 0 0 min 0,000 mm 0 W/m 7,4 C 11,1 C 0,0 km/h (0 Bft) 100 %
29.04.2022 23:30 11,1 C 11,1 C 11,2 C 78 % 1021,4 hPa 0,0 l/m 0,0 km/h (0 Bft) N 0 0 min 0,000 mm 0 W/m 7,4 C 11,1 C 0,0 km/h (0 Bft) 100 %
29.04.2022 23:40 10,9 C 10,9 C 11,1 C 79 % 1021,2 hPa 0,0 l/m 0,0 km/h (0 Bft) N 0 0 min 0,000 mm 0 W/m 7,4 C 10,9 C 0,0 km/h (0 Bft) 100 %
29.04.2022 23:50 10,8 C 10,8 C 10,9 C 79 % 1021,3 hPa 0,0 l/m 0,0 km/h (0 Bft) N 0 0 min 0,000 mm 0 W/m 7,3 C 10,8 C 0,0 km/h (0 Bft) 100 %
_ Min-Zeit 05:50 05:50 06:30 15:40 23:40 - 00:00 - - - - - 05:50 05:50 00:00 04:50
Minimum _ 4,1 C 4,1 C 4,1 C 44 % 1021,2 hPa - 0,0 km/h (0 Bft) - - - - - 2,8 C 4,1 C 0,0 km/h (0 Bft) 89 %
_ Max-Zeit 15:10 15:10 15:10 03:40 00:30 00:00 15:10 - - 12:30 13:01 12:40 14:50 15:10 15:10 03:00
Maximum _ 20,1 C 19,7 C 20,1 C 91 % 1027,0 hPa 0,0 l/m 1,7 km/h
O (1 Bft)
- - 20 min 0,433 mm 974 W/m 9,7 C 19,8 C 19,3 km/h
O-SO (3 Bft)
100 %
Durchschnitt _ 12,0 C 11,8 C 12,1 C 72 % 1024,2 hPa #0,0 l/m 0,1 km/h (0 Bft) O - #10:00 h #2,869 mm 369 W/m 6,5 C 12,0 C 1,6 km/h (1 Bft) 99 %
PRIVATE WETTERSTATION BILLIGHEIM-ALLFELD - www.neckar-odenwald-wetter.de - Holger Sonntag